RH
20 21 21 21 20 19 19 20 20 19 17 16 15 15 14 12 10 10 14 16 16 18 18 16 19 24 26 28 35 35 34 35 36 42 47 60 57 52 52 55 65 74 76 75 73
25 23 24 24 23 21 20 21 22 20 18 17 16 15 14 11 9 14 19 20 18 18 17 16 18 23 28 31 35 36 36 32 36 41 50 52 53 50 49 50 68 86 82 81 73
32 28 27 27 26 24 22 22 23 21 19 18 16 15 14 11 11 20 22 21 22 18 17 16 18 22 28 30 34 36 34 34 36 42 49 48 48 50 55 58 67 76 76 72 83
44 36 31 29 28 26 24 24 24 22 20 19 16 15 14 11 17 21 23 23 22 20 17 16 21 30 34 33 32 32 35 35 37 43 49 48 46 50 53 55 65 66 67 74 80
49 46 38 32 30 28 26 26 25 24 22 19 16 16 14 12 11 18 23 23 20 18 19 21 30 34 35 37 37 31 38 39 41 45 48 51 50 52 48 49 59 64 72 75 84
49 49 45 36 32 29 28 27 27 25 23 19 16 16 15 16 13 20 25 25 22 20 20 27 32 36 36 38 37 40 40 40 46 46 47 51 53 52 53 46 61 59 65 73 79
44 49 50 43 35 32 30 29 28 27 24 20 16 16 15 9 15 20 25 25 27 30 28 30 34 38 36 35 41 39 39 43 44 47 51 50 55 55 59 44 47 52 44 65 66
36 44 47 45 38 34 32 30 30 27 23 20 16 16 13 9 14 19 25 27 30 32 32 30 30 33 36 36 44 41 41 42 46 48 48 48 53 56 50 38 43 41 41 55 56
34 38 46 44 38 34 33 31 30 26 23 19 16 19 14 12 13 20 25 31 30 33 35 35 33 32 30 41 44 44 39 39 41 44 48 49 44 40 41 42 39 37 41 45 47
31 33 39 42 38 33 32 31 28 26 27 21 18 19 14 16 20 19 26 31 32 35 37 38 36 37 42 47 50 40 40 45 47 45 44 45 41 34 37 42 45 43 46 50 44
37 34 37 42 39 28 28 27 27 34 33 26 19 15 15 22 22 22 27 32 34 37 42 49 44 49 58 56 52 45 46 45 46 49 44 42 38 35 35 44 45 45 44 43 45
27 29 34 40 39 28 26 25 31 32 29 21 20 22 21 26 26 23 27 32 34 39 47 50 49 49 52 52 53 50 50 51 44 44 41 42 35 32 33 39 43 42 45 41 45
23 25 30 36 42 29 25 28 31 27 30 20 17 15 20 23 24 23 26 30 35 39 49 54 50 51 53 52 54 51 50 49 45 42 40 36 32 34 33 38 45 46 38 38 36
23 26 26 31 38 29 35 32 25 25 36 24 22 15 20 23 20 23 26 29 33 38 41 45 48 49 56 53 50 51 43 46 45 41 40 35 31 30 31 37 44 46 47 40 39
23 25 27 28 29 32 43 36 32 31 37 26 23 22 16 20 23 21 29 29 32 40 44 46 46 52 52 50 51 48 42 45 43 44 41 34 37 37 34 36 43 44 46 45 37
28 32 32 27 32 40 45 37 35 44 43 29 27 23 18 17 26 26 30 31 31 35 42 44 45 50 49 50 52 49 44 48 50 49 53 48 46 43 45 41 36 36 44 42 45
24 31 38 26 35 36 44 43 48 54 23 29 27 24 22 20 26 29 33 33 33 38 42 53 50 49 50 53 47 46 44 54 61 67 59 50 50 44 44 38 35 35 43 46 47
23 33 37 30 41 33 42 49 53 35 26 31 27 27 28 24 28 32 34 37 36 37 45 57 48 48 51 54 56 59 53 53 54 67 56 47 48 47 40 41 41 38 42 42 38
20 29 40 31 49 38 45 54 43 31 23 28 30 31 32 28 29 34 34 33 34 36 37 53 52 51 50 56 54 55 54 50 59 58 65 48 36 41 40 34 36 39 35 30 30
20 28 29 27 59 42 47 48 38 22 36 35 33 31 35 30 31 36 34 28 31 35 34 41 53 53 51 51 52 50 48 53 59 53 48 37 39 47 42 42 43 37 27 26 29
25 35 28 36 52 66 54 45 41 20 40 43 40 38 34 32 30 35 37 33 33 31 39 40 47 51 52 49 46 40 39 43 41 48 52 53 42 35 43 39 39 36 30 27 26
29 40 30 40 58 50 58 50 47 24 37 49 50 48 38 34 33 35 36 32 35 36 41 44 52 60 48 46 54 50 43 47 59 53 53 51 37 30 36 40 40 40 39 35 29
32 40 39 39 52 48 49 56 46 30 41 47 50 49 40 36 35 34 34 37 35 39 41 51 58 64 57 49 48 49 44 46 49 51 50 57 42 28 30 33 34 36 35 35 33
39 49 52 41 40 41 43 48 49 25 43 46 50 51 45 39 36 37 39 41 41 41 43 44 56 54 53 44 53 48 43 48 48 54 48 48 38 33 32 33 34 36 36 32 33
47 40 44 45 43 43 42 46 54 32 34 43 50 51 50 43 40 41 45 52 43 42 50 50 51 44 39 36 35 38 36 37 42 49 55 45 45 41 40 38 36 37 35 32 36
45 43 38 39 38 43 42 41 46 29 31 37 47 52 49 45 42 44 46 48 44 43 48 45 46 40 42 40 40 35 30 32 32 39 43 45 41 41 39 38 36 35 36 35 37
49 44 40 36 44 45 35 37 39 30 27 29 48 58 49 44 44 41 45 47 46 49 47 47 48 46 42 35 31 37 25 25 28 31 33 39 44 42 42 39 39 40 40 42 43